| time (UTC) | temp C | wind direction | speed KPH | gust KPH | rain 1hr cm | rain 24hr cm | rain mn cm | humidity % | barometer mb |
| 20260504081600 | 4 | 308 | 0.0 | 0.0 | 0.00 | 0.00 | 0.00 | 78 | 1013.8 |
| 20260504050008 | 8 | 249 | 0.0 | 0.0 | 0.00 | 0.00 | 0.00 | 53 | 1013.7 |
| 20260504044544 | 8 | 214 | 1.6 | 0.0 | 0.00 | 0.00 | 0.00 | 54 | 1013.7 |
| 20260504043020 | 8 | 180 | 1.6 | 0.0 | 0.00 | 0.00 | 0.00 | 57 | 1013.6 |
| 20260504041554 | 6 | 258 | 0.0 | 0.0 | 0.00 | 0.00 | 0.00 | 64 | 1013.4 |
| 20260504040034 | 5 | 259 | 1.6 | 0.0 | 0.00 | 0.00 | 0.00 | 75 | 1013.5 |
| 20260504034508 | 5 | 264 | 0.0 | 0.0 | 0.00 | 0.00 | 0.00 | 75 | 1013.4 |
| 20260504033051 | 5 | 264 | 0.0 | 0.0 | 0.00 | 0.00 | 0.00 | 77 | 1013.1 |
| 20260504031522 | 5 | 264 | 0.0 | 0.0 | 0.00 | 0.00 | 0.00 | 75 | 1013.2 |
| 20260504030059 | 6 | 264 | 0.0 | 0.0 | 0.00 | 0.00 | 0.00 | 72 | 1013.1 |
| 20260504030001 | 6 | 264 | 0.0 | 0.0 | 0.00 | 0.00 | 0.00 | 72 | 1013.0 |
| 20260504024535 | 6 | 264 | 0.0 | 0.0 | 0.00 | 0.00 | 0.00 | 71 | 1013.0 |
| 20260504023015 | 6 | 264 | 0.0 | 0.0 | 0.00 | 0.00 | 0.00 | 69 | 1013.0 |
| 20260504021549 | 6 | 265 | 0.0 | 0.0 | 0.00 | 0.00 | 0.00 | 69 | 1012.9 |
| 20260504020030 | 7 | 265 | 0.0 | 0.0 | 0.00 | 0.00 | 0.00 | 65 | 1013.0 |
| 20260504014510 | 7 | 265 | 0.0 | 0.0 | 0.00 | 0.00 | 0.00 | 63 | 1013.0 |
| 20260504013046 | 8 | 265 | 0.0 | 0.0 | 0.00 | 0.00 | 0.00 | 59 | 1012.8 |
| 20260504011524 | 9 | 265 | 0.0 | 0.0 | 0.00 | 0.00 | 0.00 | 55 | 1012.7 |
| 20260504010114 | 10 | 265 | 0.0 | 0.0 | 0.00 | 0.00 | 0.00 | 52 | 1012.4 |
| 20260504004537 | 11 | 265 | 0.0 | 0.0 | 0.00 | 0.00 | 0.00 | 46 | 1012.4 |
| 20260504003013 | 12 | 265 | 0.0 | 0.0 | 0.00 | 0.00 | 0.00 | 41 | 1012.2 |
| 20260504001600 | 12 | 265 | 0.0 | 0.0 | 0.00 | 0.00 | 0.00 | 40 | 1012.0 |
| 20260504000040 | 13 | 266 | 1.6 | 0.0 | 0.00 | 0.00 | 0.00 | 37 | 1011.9 |
| 20260503234507 | 13 | 262 | 1.6 | 0.0 | 0.00 | 0.00 | 0.00 | 36 | 1011.7 |
| 20260503233053 | 15 | 209 | 3.2 | 0.0 | 0.00 | 0.00 | 0.00 | 35 | 1011.8 |
| 20260503231521 | 15 | 281 | 6.4 | 0.0 | 0.00 | 0.00 | 0.00 | 35 | 1011.6 |
| 20260503230002 | 15 | 283 | 8.0 | 0.0 | 0.00 | 0.00 | 0.00 | 35 | 1011.5 |
| 20260503224539 | 15 | 264 | 6.4 | 0.0 | 0.00 | 0.00 | 0.00 | 34 | 1011.4 |
| 20260503223015 | 15 | 281 | 6.4 | 0.0 | 0.00 | 0.00 | 0.00 | 33 | 1011.3 |
| 20260503221557 | 15 | 284 | 6.4 | 0.0 | 0.00 | 0.00 | 0.00 | 34 | 1011.5 |
| 20260503220030 | 15 | 258 | 9.7 | 0.0 | 0.00 | 0.00 | 0.00 | 34 | 1011.5 |
| 20260503214521 | 15 | 266 | 16.1 | 0.0 | 0.00 | 0.00 | 0.00 | 32 | 1011.4 |
| 20260503213043 | 16 | 313 | 12.9 | 0.0 | 0.00 | 0.00 | 0.00 | 32 | 1011.5 |
| 20260503211523 | 15 | 302 | 12.9 | 0.0 | 0.00 | 0.00 | 0.00 | 33 | 1011.3 |
| 20260503210100 | 15 | 311 | 14.5 | 0.0 | 0.00 | 0.00 | 0.00 | 34 | 1011.4 |
| 20260503204550 | 16 | 329 | 12.9 | 0.0 | 0.00 | 0.00 | 0.00 | 33 | 1011.6 |
| 20260503203015 | 15 | 343 | 14.5 | 0.0 | 0.00 | 0.00 | 0.00 | 33 | 1011.6 |
| 20260503201551 | 15 | 256 | 16.1 | 0.0 | 0.00 | 0.00 | 0.00 | 35 | 1011.7 |
| 20260503200038 | 14 | 313 | 16.1 | 0.0 | 0.00 | 0.00 | 0.00 | 34 | 1011.8 |
| 20260503194507 | 14 | 306 | 19.3 | 0.0 | 0.00 | 0.00 | 0.00 | 34 | 1012.1 |
| 20260503193043 | 15 | 313 | 16.1 | 0.0 | 0.00 | 0.00 | 0.00 | 35 | 1012.1 |
| 20260503191519 | 14 | 262 | 14.5 | 0.0 | 0.00 | 0.00 | 0.00 | 35 | 1012.4 |
| 20260503184535 | 14 | 277 | 14.5 | 0.0 | 0.00 | 0.00 | 0.00 | 35 | 1012.6 |
| 20260503183012 | 13 | 292 | 22.5 | 0.0 | 0.00 | 0.00 | 0.00 | 37 | 1012.8 |
| 20260503181547 | 13 | 319 | 16.1 | 0.0 | 0.00 | 0.00 | 0.00 | 37 | 1012.7 |
| 20260503180027 | 13 | 317 | 16.1 | 0.0 | 0.00 | 0.00 | 0.00 | 39 | 1012.8 |
| 20260503174507 | 13 | 311 | 12.9 | 0.0 | 0.00 | 0.00 | 0.00 | 38 | 1012.9 |
| 20260503173117 | 12 | 290 | 19.3 | 0.0 | 0.00 | 0.00 | 0.00 | 36 | 1013.1 |
| 20260503171520 | 12 | 313 | 22.5 | 0.0 | 0.00 | 0.00 | 0.00 | 36 | 1013.1 |
| 20260503130107 | 8 | 303 | 16.1 | 0.0 | 0.00 | 0.00 | 0.00 | 59 | 1013.3 |